TimeEDT,TemperatureF,Dew PointF,Humidity,Sea Level PressureIn,VisibilityMPH,Wind Direction,Wind SpeedMPH,Gust SpeedMPH,PrecipitationIn,Events,Conditions,WindDirDegrees,DateUTC
12:53 AM,52.0,39.9,63,30.07,10.0,Calm,Calm,-,N/A,,Clear,0,2014-05-12 04:53:00
1:53 AM,50.0,43.0,77,30.08,10.0,Calm,Calm,-,N/A,,Clear,0,2014-05-12 05:53:00
2:53 AM,48.9,43.0,80,30.07,10.0,Calm,Calm,-,N/A,,Clear,0,2014-05-12 06:53:00
3:53 AM,46.9,41.0,80,30.09,10.0,Calm,Calm,-,N/A,,Overcast,0,2014-05-12 07:53:00
4:53 AM,51.1,45.0,80,30.09,10.0,Calm,Calm,-,N/A,,Overcast,0,2014-05-12 08:53:00
5:53 AM,51.1,43.0,74,30.09,10.0,South,4.6,-,N/A,,Overcast,180,2014-05-12 09:53:00
6:53 AM,54.0,45.0,72,30.10,10.0,Calm,Calm,-,N/A,,Mostly Cloudy,0,2014-05-12 10:53:00
7:53 AM,60.1,44.1,55,30.11,10.0,Calm,Calm,-,N/A,,Clear,0,2014-05-12 11:53:00
8:53 AM,64.9,44.1,47,30.11,10.0,WSW,3.5,-,N/A,,Clear,240,2014-05-12 12:53:00
9:53 AM,71.6,42.8,35,30.10,10.0,South,6.9,-,N/A,,Clear,180,2014-05-12 13:53:00
10:53 AM,77.0,42.1,29,30.09,10.0,South,8.1,-,N/A,,Clear,170,2014-05-12 14:53:00
11:53 AM,82.0,41.0,23,30.07,10.0,South,11.5,-,N/A,,Clear,170,2014-05-12 15:53:00
12:53 PM,82.9,37.9,20,30.04,10.0,South,6.9,-,N/A,,Mostly Cloudy,170,2014-05-12 16:53:00
1:53 PM,87.1,39.0,18,30.02,10.0,WSW,16.1,-,N/A,,Partly Cloudy,240,2014-05-12 17:53:00
2:53 PM,87.1,39.0,18,30.00,10.0,NW,8.1,18.4,N/A,,Clear,310,2014-05-12 18:53:00
3:53 PM,86.0,39.0,19,29.98,10.0,West,17.3,20.7,N/A,,Scattered Clouds,260,2014-05-12 19:53:00
4:53 PM,88.0,39.9,18,29.97,10.0,West,13.8,18.4,N/A,,Scattered Clouds,270,2014-05-12 20:53:00
5:53 PM,87.1,41.0,20,29.97,10.0,SW,10.4,-,N/A,,Scattered Clouds,220,2014-05-12 21:53:00
6:53 PM,84.9,44.1,24,29.97,10.0,South,6.9,-,N/A,,Clear,190,2014-05-12 22:53:00
7:53 PM,82.0,46.0,28,29.99,10.0,West,5.8,-,N/A,,Clear,260,2014-05-12 23:53:00
8:53 PM,73.0,50.0,44,30.01,10.0,SSE,4.6,-,N/A,,Partly Cloudy,160,2014-05-13 00:53:00
9:53 PM,71.1,53.1,53,30.02,10.0,SSE,6.9,-,N/A,,Clear,150,2014-05-13 01:53:00
10:53 PM,70.0,55.0,59,30.03,10.0,SE,4.6,-,N/A,,Clear,140,2014-05-13 02:53:00
11:53 PM,68.0,55.9,65,30.02,10.0,Calm,Calm,-,N/A,,Clear,0,2014-05-13 03:53:00